Volver al catálogo

STARLINK-3700

ActivoComunicacionesVLEO
NORAD 51956·PAYLOAD·🇺🇸 United States

Lanzado Mar 9, 2022 desde Cape Canaveral Space Force Station

Loading…

Próximos Pases (próximas 24 horas)

TLE

ActualizadoSource: CelesTrak SupGP

Época: Sep 15, 2026, 02:22 UTC

1 51956C 22025A   26258.09909722 -.00032214  00000+0 -10360-2 0  2581
2 51956  53.1576 212.1805 0001263  89.1486 289.1415 15.31715702    15

Sigue STARLINK-3700 en tiempo real con AllMySat

Download on the App Store